SCP
0 0 0 0 0 0 0 0 0 0 0 0 0 0 0 0 0 0 0 0 0 0 0 0 0 0 0 0 0 0 0 0 0 0 0 0 0 0 0 0 0 0 0
0 0 0 0 0 0 0 0 0 0 0 0 0 0 0 0 0 0 0 0 0 0 0 0 0 0 0 0 0 0 0 0 0 0 0 0 0 0 0 0 0 0 0
0 0 0 0 0 0 0 0 0 0 0 0 0 0 0 0 0 0 0 0 0 0 0 0 0 0 0 0 0 0 0 0 0 0 0 0 0 0 0 0 0 0 0
0 0 0 0 0 0 0 0 0 0 0 0 0 0 0 0 0 0 0 0 0 0 0 0 0 0 0 0 0 0 0 0 0 0 0 0 0 0 0 0 0 0 0
0 0 0 0 0 0 0 0 0 0 0 0 0 0 0 0 0 0 0 0 0 0 0 0 0 0 0 0 0 0 0 0 0 0 0 0 0 0 0 0 0 0 0
0 0 0 0 0 0 0 0 0 0 0 0 0 0 0 0 0 0 0 0 0 0 0 0 0 0 0 0 0 0 0 0 0 0 0 0 0 0 0 0 0 0 0
0 0 0 0 0 0 0 0 0 0 0 0 0 0 0 0 0 0 0 0 0 0 0 0 0 0 0 0 0 0 0 0 0 0 0 0 0 0 0 0 0 0 0
0 0 0 0 0 0 0 0 0 0 0 0 0 0 0 0 0 0 0 0 0 0 0 0 0 0 0 0 0 0 0 0 0 0 0 0 0 0 0 0 0 0 0
0 0 0 0 0 0 0 0 0 0 0 0 0 0 0 0 0 0 0 0 0 0 0 0 0 0 0 0 0 0 0 0 0 0 0 0 0 0 0 0 0 0 0
0 0 0 0 0 0 0 0 0 0 0 0 0 0 0 0 0 0 0 0 0 0 0 0 0 0 0 0 0 0 0 0 0 0 0 0 0 0 0 0 0 0 0
0 0 0 0 0 0 0 0 0 0 0 0 0 0 0 0 0 0 0 0 0 0 0 0 0 0 0 0 0 0 0 0 0 0 0 0 0 0 0 0 0 0 0
0 0 0 0 0 0 0 0 0 0 0 0 0 0 0 0 0 0 0 0 0 0 0 0 0 0 0 0 0 0 0 0 0 0 0 0 0 0 0 0 0 0 0
0 0 0 0 0 0 0 0 0 0 0 0 0 0 0 0 0 0 0 0 0 0 0 0 0 0 0 0 0 0 0 0 0 0 0 0 0 0 0 0 0 0 0
0 0 0 0 0 0 0 0 0 0 0 0 0 0 0 0 0 0 0 0 0 0 0 0 0 0 0 0 0 0 0 0 0 0 0 0 0 0 0 0 0 0 0
0 0 0 0 0 0 0 0 0 0 0 0 0 0 0 0 0 0 0 0 0 0 0 0 0 0 0 0 0 0 0 0 0 0 0 0 0 0 0 0 0 0 0
0 0 0 0 0 0 0 0 0 0 0 0 0 0 0 0 0 0 0 0 0 0 0 0 0 0 0 0 0 0 0 0 0 0 0 0 0 0 0 0 0 0 0
0 0 0 0 0 0 0 0 0 0 0 0 0 0 0 0 0 0 0 0 0 0 0 0 0 0 0 0 0 0 0 0 0 0 0 0 0 0 0 0 0 0 0
0 0 0 0 0 0 0 0 0 0 0 0 0 0 0 0 0 0 0 0 0 0 0 0 0 0 0 0 0 0 0 0 0 0 0 0 0 0 0 0 0 0 0
0 0 0 0 0 0 0 0 0 0 0 0 0 0 0 0 0 0 0 0 0 0 0 0 0 0 0 0 0 0 0 0 0 0 0 0 0 0 0 0 0 0 0
0 0 0 0 0 0 0 0 0 0 0 0 0 0 0 0 0 0 0 0 0 0 0 0 0 0 0 0 0 0 0 0 0 0 0 0 0 0 0 0 0 0 0
0 0 0 0 0 0 0 0 0 0 0 0 0 0 0 0 0 0 0 0 0 0 0 0 0 0 0 0 0 0 0 0 0 0 0 0 0 0 0 0 0 0 0
0 0 0 0 0 0 0 0 0 0 0 0 0 0 0 0 0 0 0 0 0 0 0 0 0 0 0 0 0 0 0 0 0 0 0 0 0 0 0 0 0 0 0
0 0 0 0 1 1 0 0 0 0 0 0 0 0 0 0 0 0 0 0 0 0 0 0 0 0 0 0 0 0 0 0 0 0 0 0 0 0 0 0 0 0 0
0 0 0 1 1 1 1 1 0 0 0 0 0 0 0 0 0 0 0 0 0 0 0 0 0 0 0 0 0 0 0 0 0 0 0 0 0 0 0 0 0 0 0
0 0 0 1 1 1 1 1 1 0 0 0 0 0 0 0 0 0 0 0 0 0 0 0 0 0 0 0 0 0 0 0 0 0 0 0 0 0 0 0 0 0 0
0 0 0 1 1 1 1 1 1 0 0 0 0 0 0 0 0 0 0 0 0 0 0 0 0 0 0 0 0 0 0 0 0 0 0 0 0 0 0 0 0 0 0
Wind_Speed
6 9 11 11 12 13 13 14 14 15 16 16 16 17 17 17 17 17 17 17 17 17 17 17 16 17 17 16 16 16 16 15 15 15 15 14 14 13 13 12 12 12 15
8 10 11 11 12 13 14 15 15 15 15 16 16 16 17 17 17 17 17 18 17 17 17 17 17 17 17 16 16 15 15 15 14 14 15 14 14 12 11 10 9 11 14
9 10 11 12 12 13 13 14 14 15 15 16 16 16 16 17 17 17 17 17 17 17 16 17 17 17 17 16 15 15 14 14 13 12 11 11 13 12 12 12 13 14 14
10 10 11 12 12 13 13 13 14 15 16 15 15 16 16 16 17 17 17 16 16 16 16 16 16 16 15 15 14 14 13 12 10 8 7 10 11 12 12 12 12 13 13
10 11 12 11 12 12 13 13 14 15 15 15 15 16 16 16 16 16 16 16 15 16 16 16 15 15 14 14 13 13 12 10 7 6 9 9 10 12 11 12 11 12 12
10 11 13 11 12 12 13 13 14 14 14 15 15 15 15 15 15 16 15 15 15 15 15 14 14 14 13 13 12 12 10 7 6 9 8 9 10 11 11 11 11 11 11
10 11 13 11 12 12 13 13 14 14 14 14 15 15 15 15 15 15 14 14 14 14 13 13 13 13 12 12 11 10 7 2 6 9 8 9 10 10 10 10 10 10 11
10 11 13 12 11 12 12 13 13 13 13 14 14 14 14 14 13 14 14 13 13 13 12 12 12 12 11 11 10 9 5 1 7 8 9 9 10 9 9 10 10 10 10
9 9 9 11 11 11 12 12 12 12 12 13 13 13 13 13 12 12 12 12 12 12 11 11 11 11 11 10 9 8 4 2 5 7 8 8 9 8 9 9 9 9 10
7 8 8 8 8 9 11 12 11 11 11 12 12 12 12 12 12 11 10 11 11 10 10 10 10 10 9 9 8 7 4 4 6 7 6 9 9 8 8 9 9 9 10
7 6 6 8 7 7 9 11 10 10 10 10 10 10 7 7 8 8 11 10 9 9 9 9 8 8 7 8 8 5 5 2 6 5 6 10 8 8 8 8 8 9 9
8 7 5 6 6 6 6 6 5 6 6 5 6 6 5 5 5 7 10 8 8 8 8 7 5 6 4 5 7 7 2 4 4 4 8 8 7 7 7 8 8 8 8
8 7 7 6 3 5 4 4 3 4 4 5 6 5 5 4 4 4 4 6 6 5 4 6 4 2 3 3 1 2 3 3 2 3 8 7 6 6 7 7 7 8 8
7 7 7 7 5 3 3 3 3 4 3 4 5 4 4 3 3 3 2 3 3 2 2 1 2 3 3 2 2 2 2 2 2 3 6 7 6 6 6 7 7 7 7
7 7 7 5 5 4 3 2 3 3 3 4 3 3 2 2 3 3 2 1 1 2 2 1 2 2 1 1 1 2 1 2 2 2 5 8 6 6 6 7 7 7 7
8 7 7 6 5 4 3 2 2 3 2 2 3 3 2 2 2 2 2 1 1 0 1 0 1 1 0 1 1 1 0 1 1 2 3 7 8 7 6 7 7 7 8
8 7 7 6 6 5 4 3 3 2 3 2 3 3 2 2 2 1 1 1 0 1 1 1 0 1 1 1 1 1 1 1 1 2 2 2 6 9 8 8 8 8 8
8 7 7 6 7 6 4 3 2 2 2 2 2 2 2 1 1 1 1 1 1 1 1 1 1 1 0 1 1 1 1 2 3 3 3 3 3 4 9 10 8 8 9
8 8 8 7 6 6 5 4 3 2 1 2 2 1 2 2 2 2 1 0 2 1 1 2 0 1 1 1 2 2 2 2 3 3 3 4 4 4 4 10 11 10 10
9 8 8 8 7 6 5 4 3 3 3 3 2 2 2 2 2 2 2 2 2 1 1 1 2 2 2 2 3 2 3 2 3 3 4 4 4 5 6 5 7 9 12
10 10 10 9 8 7 5 5 5 5 4 4 3 3 3 3 2 2 2 2 2 1 2 3 3 2 2 2 3 3 3 4 3 3 4 3 4 5 5 5 5 4 7
11 11 10 10 10 9 7 5 3 3 3 3 3 3 4 4 4 4 3 3 2 2 2 3 3 3 2 1 3 3 3 3 4 4 3 4 3 3 5 6 5 4 5
11 12 10 11 10 10 9 7 5 4 4 4 4 4 4 4 4 3 3 3 3 3 2 3 4 4 3 2 2 3 3 2 1 3 3 2 2 2 3 3 4 4 5
11 11 11 11 11 10 10 9 9 6 5 4 3 3 4 4 4 4 4 4 4 3 2 4 3 3 4 3 2 2 3 4 4 2 2 2 3 3 3 3 3 3 4
11 10 10 11 11 10 10 10 9 8 6 4 4 4 4 4 5 5 4 4 4 4 3 4 3 4 4 4 3 3 3 3 5 4 3 2 2 2 2 2 2 2 3
10 10 10 11 11 11 11 11 10 9 7 6 5 5 5 4 4 5 5 4 4 4 3 4 4 4 4 4 4 3 3 3 3 3 4 4 2 1 1 1 2 2 2
Wind_Direction
76 77 74 76 79 80 80 83 90 92 95 96 97 96 98 98 100 103 100 101 101 101 102 104 106 104 104 104 105 105 106 106 109 109 109 110 111 113 115 122 128 114 115
87 86 81 79 82 83 83 83 87 91 95 96 96 95 96 98 98 99 99 99 99 99 101 101 101 103 103 104 104 104 105 107 111 113 117 115 113 112 114 113 102 112 122
92 93 92 81 85 84 84 86 88 91 96 95 96 96 96 97 96 96 97 98 97 97 101 100 96 100 100 102 103 104 105 107 112 123 136 122 115 112 112 107 106 117 121
97 95 87 86 86 87 87 88 90 94 97 97 98 97 97 96 96 96 98 98 98 98 98 99 98 99 101 102 103 104 105 107 117 145 122 111 113 111 111 112 117 120 124
99 96 90 87 89 89 89 90 91 95 96 94 96 95 97 97 98 98 99 99 98 98 100 101 101 101 101 102 102 102 105 111 132 125 98 103 104 111 114 117 121 122 123
105 100 93 88 89 88 91 93 95 95 96 95 95 95 96 97 99 98 99 98 98 99 100 100 101 101 102 102 102 102 108 129 155 100 104 107 107 114 117 119 121 124 124
105 101 99 91 89 88 91 95 98 96 94 95 95 95 95 96 97 98 98 99 100 101 100 99 100 99 101 101 101 102 104 125 97 96 100 98 102 115 118 120 121 125 127
108 106 106 99 91 90 94 97 98 98 97 95 96 96 96 97 98 99 99 99 100 99 99 98 98 97 101 102 102 104 110 191 105 100 100 101 103 116 119 121 123 125 128
108 108 112 116 112 102 96 96 96 97 97 97 98 98 100 102 101 100 98 97 98 99 100 99 97 97 99 103 105 108 103 324 99 101 103 100 111 120 123 123 123 125 130
109 108 110 104 109 119 114 105 100 98 99 99 101 104 109 112 111 112 110 97 98 100 99 98 97 99 103 107 109 114 147 227 99 103 98 103 117 123 125 127 127 127 130
118 111 112 114 115 112 109 116 120 114 110 116 113 116 133 120 114 118 91 97 99 100 100 99 97 103 120 126 125 145 200 123 95 89 90 104 123 127 129 132 134 133 134
134 127 115 109 116 112 107 115 121 118 115 109 103 112 107 97 95 99 105 102 102 107 114 109 119 154 181 131 144 189 147 100 101 103 99 115 128 136 138 139 141 141 142
145 140 130 122 113 114 117 118 110 110 115 117 110 110 106 115 119 120 126 132 132 143 129 134 166 105 78 71 99 107 87 86 91 101 111 129 139 145 148 148 149 150 150
153 146 137 137 136 117 106 117 133 129 125 118 118 126 117 106 102 98 102 108 127 115 93 99 85 67 64 77 70 74 87 85 83 89 118 140 153 160 161 163 162 162 163
160 156 148 152 146 143 135 144 126 120 118 117 120 108 107 118 106 97 85 79 96 107 141 120 84 88 84 111 95 84 71 72 98 124 125 150 164 173 174 174 176 176 177
173 164 160 169 158 155 157 148 138 132 124 129 127 117 116 98 93 106 128 111 83 71 42 82 121 165 159 104 126 108 189 133 134 153 153 159 174 184 189 188 188 188 189
177 168 171 175 170 173 175 177 164 153 150 137 126 136 150 134 117 142 131 168 104 111 156 211 161 223 204 197 216 220 219 226 187 194 201 180 174 185 195 201 203 203 202
182 177 182 185 175 179 182 191 178 161 149 151 161 150 156 140 174 217 186 168 192 221 210 202 227 247 278 258 260 279 255 211 222 214 207 208 214 188 186 197 209 214 214
190 187 189 194 185 185 183 186 191 180 199 199 189 181 172 194 205 236 207 243 243 244 257 274 33 278 270 281 250 233 249 236 227 225 225 216 212 225 206 178 199 214 220
193 194 195 194 194 192 190 188 198 199 203 208 204 196 211 208 205 227 209 228 250 249 261 300 286 276 274 275 282 273 248 242 244 232 234 216 212 216 224 210 200 205 212
197 197 199 201 192 195 198 201 197 199 205 205 203 192 208 219 215 237 243 229 252 242 253 254 262 247 259 275 272 264 237 216 220 229 232 238 216 215 223 225 230 228 201
201 201 201 202 198 199 198 207 209 213 213 213 208 191 209 212 218 216 227 238 243 247 248 258 265 277 277 270 288 278 250 202 204 211 213 219 233 223 222 219 223 228 255
204 204 205 206 204 205 199 200 199 200 217 206 200 201 209 212 219 235 227 243 252 254 248 258 256 257 272 262 264 290 302 308 294 176 205 218 224 247 248 237 221 220 233
204 202 204 203 205 204 202 208 210 215 220 216 212 201 201 213 221 220 227 230 243 257 255 255 253 266 265 270 244 246 277 311 301 284 205 190 212 225 244 249 237 220 228
202 199 198 199 201 201 205 208 214 222 224 218 210 206 221 212 221 227 224 232 240 252 259 273 272 270 267 273 278 265 256 250 257 279 290 289 245 224 226 238 245 246 237
200 199 196 194 199 200 203 207 213 220 223 224 220 216 216 211 214 216 224 229 237 248 249 251 256 252 265 277 279 274 268 274 275 270 276 277 274 275 266 270 270 267 252